Weather History for Fairbanks, AK

Change the Weather History Date:

Friday, June 21, 2013

  Actual Average Record
Temperature  
Mean Temperature 69 °F 62 °F  
Max Temperature 77 °F 73 °F 94 °F (1991)
Min Temperature 60 °F 51 °F 37 °F (1928)
Degree Days  
Heating Degree Days 0 4  
Month to date heating degree days 71 130  
Since 1 June heating degree days 71 130  
Since 1 July heating degree days 14876 13639  
Cooling Degree Days 4 1  
Month to date cooling degree days 56 8  
Year to date cooling degree days 69 9  
Since 1 June cooling degree days 56 8  
Growing Degree Days 21 (Base 50)    
Moisture  
Dew Point 50 °F    
Average Humidity 56    
Maximum Humidity 81    
Minimum Humidity 30    
Precipitation  
Precipitation 0.09 in 0.05 in 0.99 in (2012)
Month to date precipitation 0.43 0.86  
Year to date precipitation 2.77 3.02  
Snow  
Snow 0.00 in 0.00 in 0.00 in (2002)
Month to date snowfall 0.0 0.0  
Since 1 June snowfall 0.0 0.0  
Since 1 July snowfall 68.6 65.0  
Snow Depth 0.00 in    
Sea Level Pressure  
Sea Level Pressure 29.84 in    
Wind  
Wind Speed 6 mph (SSW)    
Max Wind Speed 9 mph    
Max Gust Speed 18 mph    
Visibility 10 miles    
Events Rain    
T = Trace of Precipitation, MM = Missing Value Source: NWS Daily Summary

Daily Weather History Graph

Daily Weather History Graph

Search for Another Location

Airport:

Trip Planner

Search our weather history database for the weather conditions in past years. The results will help you decide how hot, cold, wet, or windy it might be!

Date:

Astronomy

Jun. 21, 2013 Rise Set
Actual Time 2:59 AM AKDT 12:47 AM AKDT
Civil Twilight Sun does not rise Sun does not rise
Nautical Twilight Sun does not rise Sun does not rise
Astronomical Twilight Sun does not rise Sun does not rise
Moon 10:05 PM AKDT (6/21) 2:39 AM AKDT (6/21)
Length of Visible Light 24h 00m
Length of Day
21h 47m
Waxing Gibbous, 96% of the Moon is Illuminated
Jun 21
Waxing Gibbous
Jun 23
Full
Jun 29
Last Quarter
Jul 7
New
Jul 15
First Quarter

Hourly Weather History & Observations

Time (AKDT) Temp. Dew Point Humidity Pressure Visibility Wind Dir Wind Speed Gust Speed Precip Events Conditions
12:22 AM 77.0 °F 43.0 °F 30% 29.77 in 10.0 mi SSW 5.8 mph 18.4 mph 0.00 in   Mostly Cloudy
12:53 AM 77.0 °F 43.0 °F 30% 29.78 in 10.0 mi NW 9.2 mph - 0.00 in   Mostly Cloudy
1:53 AM 73.0 °F 46.0 °F 38% 29.79 in 10.0 mi Variable 4.6 mph - N/A   Mostly Cloudy
2:53 AM 71.1 °F 48.0 °F 44% 29.80 in 10.0 mi SW 4.6 mph - 0.00 in Rain Light Rain
3:53 AM 68.0 °F 48.0 °F 49% 29.81 in 10.0 mi West 8.1 mph - 0.00 in   Mostly Cloudy
4:53 AM 66.9 °F 46.0 °F 47% 29.81 in 10.0 mi SSW 8.1 mph - N/A   Mostly Cloudy
5:53 AM 64.0 °F 48.0 °F 56% 29.82 in 10.0 mi South 6.9 mph - N/A   Mostly Cloudy
6:53 AM 64.0 °F 48.9 °F 58% 29.85 in 10.0 mi SSW 5.8 mph - N/A   Overcast
7:53 AM 64.0 °F 51.1 °F 63% 29.82 in 10.0 mi WSW 8.1 mph - 0.00 in Rain Light Rain
8:53 AM 64.9 °F 48.9 °F 56% 29.83 in 10.0 mi WSW 8.1 mph - 0.00 in Rain Light Rain
9:53 AM 66.0 °F 46.9 °F 50% 29.85 in 10.0 mi WSW 9.2 mph - 0.00 in   Mostly Cloudy
10:53 AM 66.0 °F 48.0 °F 52% 29.86 in 10.0 mi South 8.1 mph - N/A   Overcast
11:53 AM 63.0 °F 53.1 °F 70% 29.88 in 10.0 mi South 5.8 mph - 0.00 in Rain Light Rain
12:53 PM 61.0 °F 54.0 °F 78% 29.89 in 10.0 mi SSW 5.8 mph - 0.02 in Rain Light Rain
1:53 PM 63.0 °F 54.0 °F 72% 29.89 in 10.0 mi SSE 4.6 mph - 0.00 in   Overcast
2:53 PM 61.0 °F 55.0 °F 81% 29.91 in 10.0 mi Calm Calm - 0.01 in Rain Light Rain
3:53 PM 62.1 °F 55.9 °F 80% 29.87 in 10.0 mi North 8.1 mph - 0.06 in Rain Light Rain
4:53 PM 64.0 °F 55.9 °F 75% 29.88 in 10.0 mi SE 4.6 mph - 0.00 in   Mostly Cloudy
5:53 PM 68.0 °F 53.1 °F 59% 29.86 in 10.0 mi Calm Calm - N/A   Scattered Clouds
6:53 PM 69.1 °F 52.0 °F 54% 29.86 in 10.0 mi East 3.5 mph - N/A   Scattered Clouds
7:53 PM 70.0 °F 51.1 °F 51% 29.84 in 10.0 mi East 3.5 mph - N/A   Mostly Cloudy
8:53 PM 70.0 °F 51.1 °F 51% 29.84 in 10.0 mi ENE 3.5 mph - N/A   Mostly Cloudy
9:53 PM 68.0 °F 52.0 °F 56% 29.84 in 10.0 mi Calm Calm - N/A   Mostly Cloudy
10:53 PM 64.0 °F 53.1 °F 67% 29.84 in 10.0 mi Calm Calm - N/A   Mostly Cloudy
11:53 PM 63.0 °F 48.9 °F 60% 29.85 in 10.0 mi SSW 4.6 mph - N/A   Mostly Cloudy